Regional Weather Roundup
Issued by NWS

Home | Current Version | Previous Version | Text Only | Print | Product List | Glossary On
Versions: 1 2 3 4 5 6 7 8 9 10 11 12 13 14 15 16 17 18 19 20 21 22 23 24 25 26 27 28 29 30 31 32 33 34 35 36 37 38 39 40 41 42 43 44 45 46 47 48 49 50
000
ASUS45 KBOU 290807
RWRCO

WEATHER ROUNDUP FOR COLORADO
NATIONAL WEATHER SERVICE DENVER/BOULDER CO
200 AM MDT TUE JUL 29 2014

NOTE: "FAIR" INDICATES FEW OR NO CLOUDS BELOW 12000 FEET WITH NO
SIGNIFICANT WEATHER AND/OR OBSTRUCTIONS TO VISIBILITY.

COZ001>005-013-030-031-290900-
...NORTHWEST COLORADO...

CITY           SKY/WX    TMP DP  RH WIND       PRES   REMARKS
CRAIG          CLOUDY    56  54  93 CALM      30.33F
HAYDEN         CLOUDY    63  46  55 SW6       30.35S
MEEKER         CLOUDY    63  53  70 N3        30.36R
MOUNT WERNER   NOT AVBL
STEAMBOAT SPGS CLOUDY    61  49  65 CALM      30.36F
WALDEN         MOCLDY    50  41  71 SE8       30.45F
$$

COZ006>008-011-290900-
...WEST CENTRAL VALLEYS...

CITY           SKY/WX    TMP DP  RH WIND       PRES   REMARKS
GRAND JUNCTION LGT RAIN  63  62  97 NW10      30.31S
MONTROSE       CLOUDY    61  59  93 N3        30.37F
EAGLE          CLOUDY    61  54  77 CALM      30.40S
RIFLE          CLOUDY    63  60  90 CALM      30.31F
DELTA          CLOUDY    65  61  88 SW3       30.34F
NUCLA          CLOUDY    61  59  94 N3        30.41F
$$

COZ017>023-064>068-290900-
...SOUTHWEST COLORADO...

CITY           SKY/WX    TMP DP  RH WIND       PRES   REMARKS
DURANGO        CLOUDY    60  56  86 W5        30.40S
CORTEZ         RAIN      62  61  96 CALM      30.36S
PAGOSA SPRINGS CLOUDY    60  53  77 N3        30.46F
TELLURIDE      NOT AVBL
WOLF CREEK PAS NOT AVBL
$$

COZ009-010-012-014-032>034-037-058>063-290900-
...CENTRAL COLORADO...

CITY           SKY/WX    TMP DP  RH WIND       PRES   REMARKS
ASPEN          CLOUDY    55  53  93 CALM      30.45S
BUENA VISTA    CLOUDY    55  53  92 CALM      30.47F
COPPER MTN     CLOUDY    54  37  54 W5        30.73S
BERTHOUD PASS  CLOUDY    41  28  60 SE20      30.76F
COTTONWOOD PAS CLOUDY    54  46  76 NW7       30.58F
GUNNISON       CLOUDY    57  52  82 CALM      30.50F
KREMMLING      MOCLDY    55  46  71 CALM      30.43F
LEADVILLE      CLOUDY    48  46  93 E3        30.58F
MONARCH PASS   CLOUDY    43  41  93 W20       30.82F
SALIDA         CLOUDY    58  55  87 N5        30.51F
SUNLIGHT       DRIZZLE   50  50 100 SW3       30.65F
WILKERSON PASS MOCLDY    45  41  87 W5        30.70F
$$

COZ069>075-290900-
...SAN LUIS VALLEY/SANGRE DE CRISTO MOUNTAINS...

CITY           SKY/WX    TMP DP  RH WIND       PRES   REMARKS
ALAMOSA        CLOUDY    56  54  93 W3        30.46F
LA VETA PASS   CLOUDY    46  45  93 SW10G18   30.58F THUNDER
SAGUACHE       LGT RAIN  55  54  94 NW5       30.49F
$$

COZ035-036-038>040-290900-
...NORTHERN COLORADO FRONT RANGE...

CITY           SKY/WX    TMP DP  RH WIND       PRES   REMARKS
DENVER INTL AP PTCLDY    60  55  83 S8        30.26F
DMNS CITY PARK   N/A     64  58  81 S3        30.26F
AURORA         PTCLDY    62  54  76 SW8       30.29F
FRONT RANGE AP NOT AVBL
ERIE MUNI ARPT PTCLDY    62  58  86 SW5       30.25F
BOULDER MUN AP PTCLDY    64  57  77 S5        30.26S
CENTENNIAL     PTCLDY    62  52  69 W10       30.30F
BROOMFIELD     PTCLDY    63  57  82 W3        30.29S
FORT COLLINS   PTCLDY    64  55  72 N5        30.26F
LONGMONT       PTCLDY    66  59  78 CALM      30.26F
$$

COZ041-046-047-076>085-087-088-290900-
...PIKES PEAK/PALMER DIVIDE AND SOUTHERN FOOTHILLS...

CITY           SKY/WX    TMP DP  RH WIND       PRES   REMARKS
COLO. SPRINGS  MOCLDY    61  57  87 NE6       30.34F
A. F. ACADEMY  MOCLDY    57  55  94 VRB1      30.35F
ELLICOTT       MOCLDY    62  60  93 E7        30.32F
FALCON         MOCLDY    58  57  94 N3        30.38F
FORT CARSON    CLOUDY    62  60  95 NW6       30.31F
LIMON          PTCLDY    59  56  89 SE7       30.30F
MONUMENT HILL  PTCLDY    55  48  76 SW7       30.37F
TRINIDAD       CLOUDY    64  57  78 W6        30.32F
$$

COZ042>045-048>051-090-091-290900-
...NORTHEAST COLORADO...

CITY           SKY/WX    TMP DP  RH WIND       PRES   REMARKS
GREELEY ARPT   PTCLDY    64  55  72 N6        30.24R
AKRON          PTCLDY    66  57  72 S10       30.25F
BURLINGTON     PTCLDY    61  57  87 S8        30.25F
WRAY             N/A     70  58  66 SW7       30.22S
STERLING       PTCLDY    68  61  77 CALM      30.20F
HOLYOKE        MOCLDY    61  55  82 SE5       30.21F
FORT MORGAN    PTCLDY    65  56  71 SE5       30.24F
$$

COZ086-089-092>099-290900-
...SOUTHEAST COLORADO...

CITY           SKY/WX    TMP DP  RH WIND       PRES   REMARKS
PUEBLO         CLOUDY    67  62  84 E3        30.24F
LA JUNTA       CLOUDY    69  63  81 SW8       30.22F
LAMAR          MOCLDY    67  62  84 SE5       30.20F
SPRINGFIELD      N/A     63  62  97 S10       30.27F
$$



USA.gov is the U.S. government's official web portal to all federal, state and local government web resources and services.